Location: Chuathbaluk
(61.5726°N, 159.2454°W)
Time: 06:24:29
(UTC+00:00)

XW-2F - Pass Details

Date: 22 January 2021
Orbit: 499 x 520 km, 97.5° (Epoch: 08 March)

Event Time Altitude Azimuth Distance (km) Brightness Sun altitude
Rises 17:05:42 0° 17° (NNE) 2,663 ? -15.1°
Reaches altitude 10° 17:07:49 10° 19° (NNE) 1,772 ? -14.8°
Maximum altitude 17:11:38 75° 105° (ESE) 549 ? -14.4°
Drops below altitude 10° 17:15:27 10° 191° (SSW) 1,762 ? -14.0°
Sets 17:17:33 0° 194° (SSW) 2,646 ? -13.7°
